[[{"header":{"parameterUnit":"m.s-1","parameterCategory":1,"la1":30.2991,"la2":30.254,"lo1":-89.0895,"lo2":-89.0444,"dy":0.0017,"dx":0.0017,"nx":28,"ny":28,"refTime":"2024-10-15T03:00:00:Z","depth":0,"parameterNumber":2,"parameterNumberName":"U-component_of_WINDS"},"data":[0,0,0,0,0,0,0,0,0,0,0,0,0,0,0,0,0,0,0,0,0,0,0,0,0,0,0,0,0,0,0,0,0,0,0,0,0,0,0,0,0,0,0,0,0,0,0,0,0,0,0,0,0,0,0,0,0,0,-4.0041,-4.0042,0,-4.0078,-4.0079,-4.0079,-3.9973,-3.997,-3.9967,-3.9964,-4.0002,-4.0006,-4.001,0,0,0,0,0,0,0,0,0,0,0,0,0,-3.9879,-3.9883,-4.0041,-4.0042,-4.0042,-4.0078,-4.0079,-4.0079,-3.9974,-3.997,-3.9966,-3.9962,-4.0001,-4.0005,-4.001,0,0,0,0,0,0,0,0,0,0,0,0,0,-3.9936,-3.9884,-4.0041,-3.9994,-3.999,-4.0078,-4.0079,-4.0079,-3.9975,-3.997,-3.9965,-3.996,-3.9999,-4.0005,-4.0011,-4.0146,0,0,-4.0029,-4.0032,0,0,0,0,0,0,0,0,-3.9933,-3.9942,-4.0001,-3.9998,-3.9993,-4.0016,-4.0035,-4.0102,-3.9976,-3.9981,-3.9964,-3.9958,-4.0011,-4.0015,-4.0033,-4.0148,-4.015,-4.003,-4.0034,-4.0036,-4.0038,0,0,0,0,0,0,0,-3.9929,-3.994,-4.0056,-4.0002,-3.9997,-3.9971,-3.9974,-4.0047,-4.0023,-3.998,-3.9972,-3.9978,-4.0008,-4.0028,-4.0033,-4.015,-4.003,-4.0035,-4.0039,-4.0041,-4.0377,-4.0382,0,0,0,0,0,0,-3.9932,-3.9938,-4.0055,-4.0057,-3.9951,-3.9978,-3.9981,-4.0014,-4.0022,-4.0018,-3.9982,-3.9973,-4.002,-4.0026,-4.0034,-4.0193,-4.0036,-4.0042,-4.0045,-4.0372,-4.0378,-4.0384,0,0,0,0,0,0,-3.9928,-3.9943,-4.0053,-3.9995,-4.0007,-3.9986,-4.0024,-4.0017,-4.0037,-4.0023,-4.0018,-4.0007,-4.0016,-4.0026,-4.0119,-4.0193,-4.0045,-4.005,-4.0366,-4.0374,-4.0381,-4.0513,0,0,0,0,0,0,-3.9924,-3.9943,-3.9994,-3.9997,-4.0011,-4.0138,-4.0028,-4.0021,-4.0048,-4.0036,-4.0045,-4.0042,-4.0013,-4.011,-4.0125,-4.0199,-4.0055,-4.0359,-4.0369,-4.0379,-4.0502,-4.0524,-4.0544,0,0,0,0,0,-3.9919,-4.003,-3.9997,-4.0012,-4.0075,-4.0143,-4.0151,-4.0114,-4.0054,-4.0106,-4.0096,-4.0042,-4.0182,-4.0121,-4.0136,-4.0213,-4.0354,-4.0366,-4.0378,-4.0493,-4.052,-4.0543,0,0,0,0,0,0,-4.0037,-4.003,-3.9993,-4.0109,-4.0127,-4.0125,-4.0189,-4.0145,-4.0181,-4.0168,-4.0122,-4.0125,-4.0227,-4.0229,-4.0161,-4.0344,-4.0258,-4.0273,-4.034,-4.0366,-4.0386,-4.0384,-4.006,0,0,0,0,0,-4.0076,-4.0132,-4.0122,-4.0225,-4.0236,-4.0211,-4.024,-4.021,-4.0227,-4.0234,-4.0232,-4.0251,-4.0299,-4.0332,-4.0375,-4.0501,-4.0501,-4.0561,-4.0582,-4.0599,-4.0614,-4.068,-4.0706,-4.0423,-4.0423,-4.0423,0,0,-4.0159,-4.0161,-4.02,-4.0249,-4.026,-4.0319,-4.0219,-4.0285,-4.0328,-4.0244,-4.0333,-4.0332,-4.0349,-4.0459,-4.0508,-4.0464,-4.0692,-4.0614,-4.0628,-4.0633,-4.0695,-4.0722,-4.0746,-4.0431,-4.0429,-4.0428,0,0,-4.0339,-4.0346,-4.0433,-4.0445,-4.0463,-4.0445,-4.0466,-4.047,-4.0466,-4.0553,-4.0491,-4.0541,-4.0625,-4.0641,-4.0659,-4.0843,-4.0795,-4.0859,-4.0969,-4.1034,-4.1056,-4.1076,-4.1142,-4.1167,-4.0873,-4.0873,-4.0873,0,-4.0439,-4.0526,-4.0483,-4.0554,-4.0578,-4.0503,-4.059,-4.0604,-4.0635,-4.0653,-4.0603,-4.0707,-4.0713,-4.0826,-4.0871,-4.0888,-4.091,-4.0859,-4.1056,-4.1075,-4.1093,-4.1156,-4.1181,-4.0881,-4.088,-4.0879,-4.0878,0,-4.0648,-4.0709,-4.0777,-4.0808,-4.0839,-4.0918,-4.0887,-4.0923,-4.089,-4.0877,-4.0967,-4.0972,-4.1015,-4.1039,-4.1008,-4.1147,-4.112,-4.1064,-4.0977,-4.1129,-4.1187,-4.1211,-4.0892,-4.0889,-4.0887,-4.0885,0,0,-4.0907,-4.0912,-4.0938,-4.0951,-4.0964,-4.101,-4.1084,-4.1126,-4.1158,-4.1181,-4.1243,-4.1315,-4.1263,-4.1284,-4.1253,-4.1311,-4.1457,-4.1247,-4.1247,-4.1287,-4.1611,-4.1655,-4.1683,-4.1423,-4.1428,-4.1431,-4.161,0,-4.1086,-4.1214,-4.1177,-4.1306,-4.1362,-4.1291,-4.1356,-4.137,-4.136,-4.1405,-4.1393,-4.1445,-4.1372,-4.1385,-4.1438,-4.1428,-4.1521,-4.1414,-4.1481,-4.1484,-4.1481,-4.1713,-4.176,-4.1928,-4.1632,-4.1636,-4.1639,0,-4.1312,-4.1344,-4.1479,-4.1481,-4.1503,-4.1562,-4.1597,-4.1641,-4.1655,-4.1644,-4.1667,-4.1624,-4.1697,-4.1607,-4.1707,-4.1635,-4.166,-4.1659,-4.1664,-4.1671,-4.1572,-4.1728,-4.1981,-4.2007,-4.1674,-4.1672,-4.1669,0,-4.1489,-4.1565,-4.1655,-4.1668,-4.1673,-4.1716,-4.172,-4.173,-4.1757,-4.1787,-4.1804,-4.1842,-4.1864,-4.1894,-4.1863,-4.18,-4.1968,-4.1875,-4.1961,-4.1962,-4.2001,-4.1999,-4.2264,-4.2014,-4.2014,-4.2013,-4.2013,0,-4.1694,-4.1779,-4.1735,-4.1791,-4.1884,-4.1839,-4.1933,-4.1929,-4.1937,-4.1991,-4.1931,-4.1982,-4.1936,-4.1983,-4.1958,-4.2045,-4.2055,-4.2048,-4.2041,-4.2055,-4.2056,-4.2072,-4.206,-4.202,-4.2019,-4.2017,-4.2016,0,-4.1908,-4.1882,-4.1976,-4.1972,-4.1973,-4.2042,-4.2038,-4.209,-4.2074,-4.2142,-4.2155,-4.2131,-4.2183,-4.2154,-4.2207,-4.219,-4.2304,-4.2279,-4.2299,-4.2294,-4.2381,-4.2374,-4.2666,-4.2703,-4.2428,-4.2431,-4.2433,0,-4.2042,-4.2106,-4.2109,-4.214,-4.2148,-4.2199,-4.2226,-4.2184,-4.2215,-4.2236,-4.2285,-4.2331,-4.2367,-4.2453,-4.244,-4.248,-4.2458,-4.2557,-4.2464,-4.2475,-4.2461,-4.2458,-4.2465,-4.2577,-4.2581,-4.2583,-4.2585,0,-4.2282,-4.2265,-4.2307,-4.2344,-4.2378,-4.2405,-4.2427,-4.2456,-4.2414,-4.2451,-4.2504,-4.2531,-4.2585,-4.2632,-4.2667,-4.267,-4.2622,-4.2614,-4.2636,-4.2652,-4.2662,-4.2659,-4.2353,-4.2609,-4.2606,-4.2605,-4.2603,-4.2602,-4.2461,-4.2515,-4.2525,-4.2573,-4.2585,-4.2606,-4.2654,-4.2644,-4.2687,-4.2728,-4.2699,-4.2762,-4.2773,-4.2813,-4.2823,-4.2871,-4.283,-4.2862,-4.2871,-4.288,-4.2892,-4.2652,-4.2876,-4.2876,-4.2875,-4.2874,-4.2874,0,-4.27,-4.2702,-4.2747,-4.2779,-4.2817,-4.2766,-4.2787,-4.2822,-4.2877,-4.2892,-4.2927,-4.2987,-4.3032,-4.3022,-4.3062,-4.3103,-4.3081,-4.3115,-4.3113,-4.3114,-4.2925,-4.2903,-4.3131,-4.3131,-4.3131,-4.3131,-4.3131,-4.3131,-4.2829,-4.2917,-4.2901,-4.2993,-4.2995,-4.3055,-4.3072,-4.3091,-4.3102,-4.3172,-4.3209,-4.3201,-4.3206,-4.3246,-4.3285,-4.328,-4.3299,-4.3341,-4.3329,-4.3153,-4.3127,-4.3103,-4.3082,-4.3345,-4.3345,-4.3514,-4.3515,-4.3516]},{"header":{"parameterUnit":"m.s-1","parameterCategory":1,"la1":30.2991,"la2":30.254,"lo1":-89.0895,"lo2":-89.0444,"dy":0.0017,"dx":0.0017,"nx":28,"ny":28,"refTime":"2024-10-15T03:00:00:Z","depth":0,"parameterNumber":3,"parameterNumberName":"V-component_of_WINDS"},"data":[0,0,0,0,0,0,0,0,0,0,0,0,0,0,0,0,0,0,0,0,0,0,0,0,0,0,0,0,0,0,0,0,0,0,0,0,0,0,0,0,0,0,0,0,0,0,0,0,0,0,0,0,0,0,0,0,0,0,-8.0538,-8.0539,0,-8.0622,-8.0623,-8.0624,-8.0518,-8.0514,-8.051,-8.0507,-8.0587,-8.0593,-8.0598,0,0,0,0,0,0,0,0,0,0,0,0,0,-8.0277,-8.0283,-8.0538,-8.0539,-8.054,-8.0622,-8.0623,-8.0625,-8.0519,-8.0514,-8.0509,-8.0505,-8.0585,-8.0592,-8.0599,0,0,0,0,0,0,0,0,0,0,0,0,0,-8.0379,-8.0285,-8.0538,-8.0497,-8.0494,-8.0622,-8.0623,-8.0625,-8.052,-8.0514,-8.0508,-8.0503,-8.0583,-8.0591,-8.06,-8.0769,0,0,-8.0626,-8.063,0,0,0,0,0,0,0,0,-8.0373,-8.0389,-8.0502,-8.05,-8.0497,-8.0554,-8.0561,-8.0673,-8.0521,-8.051,-8.0507,-8.05,-8.058,-8.0589,-8.0617,-8.0773,-8.0776,-8.0627,-8.0632,-8.0636,-8.0638,0,0,0,0,0,0,0,-8.0367,-8.0384,-8.0571,-8.0504,-8.0501,-8.0472,-8.048,-8.0582,-8.0576,-8.051,-8.0503,-8.0515,-8.0578,-8.0609,-8.0618,-8.0778,-8.0627,-8.0634,-8.064,-8.0643,-8.1075,-8.1081,0,0,0,0,0,0,-8.0365,-8.0379,-8.0568,-8.0573,-8.042,-8.0482,-8.0491,-8.0541,-8.0575,-8.0575,-8.052,-8.051,-8.0597,-8.0608,-8.0621,-8.0821,-8.0636,-8.0644,-8.0649,-8.1069,-8.1077,-8.1084,0,0,0,0,0,0,-8.036,-8.0383,-8.0565,-8.0475,-8.0496,-8.0493,-8.055,-8.0546,-8.0577,-8.0582,-8.058,-8.0553,-8.0593,-8.0609,-8.0733,-8.0822,-8.0648,-8.0656,-8.1062,-8.1071,-8.108,-8.1223,0,0,0,0,0,0,-8.0353,-8.0382,-8.0448,-8.0477,-8.0501,-8.0679,-8.0556,-8.0552,-8.0593,-8.0581,-8.0613,-8.0613,-8.059,-8.0721,-8.0742,-8.0831,-8.0662,-8.1054,-8.1066,-8.1077,-8.121,-8.1236,-8.1258,0,0,0,0,0,-8.0344,-8.0484,-8.0452,-8.0475,-8.0584,-8.0684,-8.0697,-8.067,-8.0601,-8.0666,-8.0669,-8.0612,-8.0809,-8.0735,-8.0757,-8.085,-8.1048,-8.1063,-8.1076,-8.12,-8.1231,-8.1258,0,0,0,0,0,0,-8.0463,-8.0487,-8.0452,-8.0605,-8.0644,-8.0666,-8.0747,-8.0704,-8.0762,-8.0747,-8.0709,-8.0717,-8.085,-8.0862,-8.0779,-8.1015,-8.0917,-8.0936,-8.1003,-8.1033,-8.1056,-8.105,-8.067,0,0,0,0,0,-8.0507,-8.0589,-8.0604,-8.0738,-8.076,-8.0751,-8.0793,-8.0769,-8.0806,-8.0821,-8.0833,-8.087,-8.094,-8.0987,-8.1052,-8.1211,-8.1216,-8.1286,-8.131,-8.133,-8.1347,-8.1431,-8.1462,-8.113,-8.113,-8.113,0,0,-8.0599,-8.0622,-8.0676,-8.0763,-8.079,-8.0873,-8.0765,-8.0858,-8.0918,-8.0835,-8.0954,-8.0964,-8.1002,-8.1145,-8.1208,-8.1159,-8.144,-8.1348,-8.1364,-8.137,-8.1449,-8.1481,-8.1509,-8.114,-8.1138,-8.1137,0,0,-8.0809,-8.0836,-8.095,-8.098,-8.1023,-8.1016,-8.1043,-8.1072,-8.1076,-8.1196,-8.1135,-8.1205,-8.1327,-8.1357,-8.1388,-8.1609,-8.1558,-8.1631,-8.1756,-8.1839,-8.1865,-8.1888,-8.1966,-8.1995,-8.1648,-8.1648,-8.1648,0,-8.0918,-8.1043,-8.1013,-8.1112,-8.1151,-8.1081,-8.1195,-8.1224,-8.1285,-8.1313,-8.1257,-8.1409,-8.1429,-8.1578,-8.1632,-8.166,-8.1688,-8.1627,-8.1864,-8.1887,-8.1908,-8.1982,-8.2011,-8.1657,-8.1656,-8.1655,-8.1654,0,-8.1174,-8.1262,-8.1348,-8.1412,-8.146,-8.1566,-8.155,-8.1603,-8.1574,-8.1572,-8.1694,-8.1716,-8.1784,-8.1818,-8.179,-8.1962,-8.193,-8.187,-8.177,-8.1948,-8.2017,-8.2046,-8.1669,-8.1666,-8.1663,-8.1661,0,0,-8.1461,-8.1507,-8.154,-8.1567,-8.1609,-8.1676,-8.1777,-8.1845,-8.1891,-8.1935,-8.2018,-8.2123,-8.2067,-8.2102,-8.2077,-8.215,-8.2323,-8.208,-8.208,-8.2124,-8.2513,-8.2558,-8.2592,-8.2289,-8.2295,-8.2299,-8.251,0,-8.1671,-8.185,-8.1826,-8.1996,-8.2076,-8.201,-8.2098,-8.2132,-8.2133,-8.2199,-8.2199,-8.2274,-8.2195,-8.2216,-8.2285,-8.2288,-8.24,-8.2272,-8.2364,-8.2368,-8.2357,-8.2628,-8.2676,-8.2874,-8.2537,-8.2541,-8.2544,0,-8.1941,-8.1997,-8.2176,-8.2206,-8.2238,-8.2318,-8.2379,-8.2444,-8.248,-8.2475,-8.2515,-8.2477,-8.2576,-8.2475,-8.2609,-8.2523,-8.2559,-8.2565,-8.2572,-8.2579,-8.2467,-8.2642,-8.2936,-8.2966,-8.2587,-8.2583,-8.258,0,-8.2132,-8.2252,-8.2375,-8.2401,-8.2438,-8.2496,-8.2514,-8.2545,-8.2587,-8.2639,-8.2666,-8.2728,-8.2762,-8.281,-8.2789,-8.2717,-8.2928,-8.2825,-8.2925,-8.2926,-8.2972,-8.2969,-8.3276,-8.2996,-8.2996,-8.2995,-8.2995,0,-8.2369,-8.2481,-8.2462,-8.2537,-8.266,-8.263,-8.2751,-8.2761,-8.2789,-8.2863,-8.2809,-8.288,-8.2847,-8.2915,-8.2898,-8.3012,-8.3027,-8.3025,-8.3019,-8.303,-8.303,-8.3053,-8.3038,-8.3003,-8.3001,-8.3,-8.2998,0,-8.2604,-8.2595,-8.2725,-8.275,-8.2759,-8.2848,-8.2869,-8.2938,-8.2935,-8.303,-8.305,-8.3045,-8.3121,-8.3105,-8.3188,-8.3177,-8.332,-8.3297,-8.3308,-8.3303,-8.3404,-8.3394,-8.3735,-8.3778,-8.3471,-8.3474,-8.3477,0,-8.2756,-8.2841,-8.2876,-8.2923,-8.2946,-8.3022,-8.3066,-8.3039,-8.3086,-8.3134,-8.3198,-8.327,-8.3326,-8.3451,-8.3453,-8.3516,-8.3494,-8.3609,-8.3503,-8.3511,-8.3495,-8.3491,-8.3498,-8.363,-8.3634,-8.3637,-8.3639,0,-8.3026,-8.3018,-8.3084,-8.315,-8.3204,-8.3253,-8.3297,-8.3338,-8.3315,-8.337,-8.3449,-8.3493,-8.3579,-8.3651,-8.3709,-8.3724,-8.3678,-8.3673,-8.3699,-8.3711,-8.3714,-8.3713,-8.3365,-8.3665,-8.3662,-8.366,-8.3659,-8.3658,-8.3223,-8.3296,-8.3332,-8.3408,-8.3438,-8.3481,-8.3547,-8.3553,-8.3619,-8.3689,-8.3668,-8.3758,-8.379,-8.3865,-8.3887,-8.3955,-8.3912,-8.395,-8.396,-8.397,-8.3982,-8.3704,-8.3966,-8.3965,-8.3964,-8.3963,-8.3963,0,-8.3491,-8.3511,-8.3581,-8.3645,-8.3704,-8.3657,-8.3703,-8.3755,-8.3835,-8.3871,-8.3928,-8.4018,-8.4088,-8.4095,-8.416,-8.4213,-8.4193,-8.4231,-8.4226,-8.4231,-8.4017,-8.3988,-8.4246,-8.4246,-8.4246,-8.4246,-8.4246,-8.4246,-8.3637,-8.3757,-8.3753,-8.3886,-8.3905,-8.3994,-8.4024,-8.4062,-8.4091,-8.4195,-8.4253,-8.4258,-8.4282,-8.4348,-8.4409,-8.4409,-8.4435,-8.4481,-8.4473,-8.4274,-8.4246,-8.4219,-8.4191,-8.4487,-8.4488,-8.468,-8.4682,-8.4684]}]]